Regional Weather Roundup
Issued by NWS

Home | Current Version | Previous Version | Graphics & Text | Print | Product List | Glossary Off
Versions: 1 2 3 4 5 6 7 8 9 10 11 12 13 14 15 16 17 18 19 20 21 22 23 24 25 26 27

000
ASUS45 KBOU 201907
RWRCO

WEATHER ROUNDUP FOR COLORADO
NATIONAL WEATHER SERVICE DENVER/BOULDER CO
100 PM MDT SUN AUG 20 2017

NOTE: "FAIR" INDICATES FEW OR NO CLOUDS BELOW 12000 FEET WITH NO
SIGNIFICANT WEATHER AND/OR OBSTRUCTIONS TO VISIBILITY.

COZ001>005-013-030-031-202000-
...NORTHWEST COLORADO...

CITY           SKY/WX    TMP DP  RH WIND       PRES   REMARKS
CRAIG          FAIR      86  28  12 VRB5      30.17F
HAYDEN         FAIR      81  34  18 NW6       30.21F
MEEKER         FAIR      84  32  15 VRB6      30.18F
RABBIT EARS PA FAIR      63  34  34 NW3       30.53S
STEAMBOAT SPGS FAIR      80  32  17 NE3       30.22F
WALDEN         FAIR      72  30  21 SW6       30.34S
$$

COZ006>008-011-202000-
...WEST CENTRAL VALLEYS...

CITY           SKY/WX    TMP DP  RH WIND       PRES   REMARKS
GRAND JUNCTION FAIR      88  37  16 CALM      30.06F
MONTROSE       FAIR      85  41  21 N6        30.14F
EAGLE          FAIR      82  33  17 VRB5      30.21F
RIFLE          FAIR      86  32  14 VRB3      30.11F
DELTA          FAIR      89  33  13 S5        30.10F
NUCLA          FAIR      88  28  11 W7        30.17F
$$

COZ017>023-064>068-202000-
...SOUTHWEST COLORADO...

CITY           SKY/WX    TMP DP  RH WIND       PRES   REMARKS
DURANGO        FAIR      81  38  21 VRB3      30.20F
CORTEZ         FAIR      86  37  17 CALM      30.14F
PAGOSA SPRINGS FAIR      79  29  16 S6        30.28S
TELLURIDE      CLOUDY    73  30  20 CALM      30.40S
WOLF CREEK PAS FAIR      59  30  33 CALM      30.66F
$$

COZ009-010-012-014-032>034-037-058>063-202000-
...CENTRAL COLORADO...

CITY           SKY/WX    TMP DP  RH WIND       PRES   REMARKS
ASPEN          FAIR      80  28  15 N12       30.28F
BUENA VISTA    FAIR      78  28  16 SE8       30.30F
COPPER MTN     FAIR      61  25  25 NW5       30.64S
BERTHOUD PASS  CLOUDY    52  46  82 W3        30.68R
COTTONWOOD PAS FAIR      77  19  11 E3        30.45F
GUNNISON       FAIR      75  39  27 VRB5      30.30F
KREMMLING      FAIR      86  23  10 SE5       30.28F
LEADVILLE      FAIR      66  22  18 W8        30.44F
SALIDA         FAIR      81  32  16 N6        30.34F
SUNLIGHT       FAIR      63  32  31 W5        30.57S
WILKERSON PASS FAIR      63  27  25 CALM      30.60F
$$

COZ069>075-202000-
...SAN LUIS VALLEY/SANGRE DE CRISTO MOUNTAINS...

CITY           SKY/WX    TMP DP  RH WIND       PRES   REMARKS
ALAMOSA        FAIR      77  36  22 W5        30.27F
DEL NORTE      FAIR      73  41  31 E7        30.32F
LA VETA PASS   NOT AVBL
SAGUACHE       FAIR      75  37  25 S6        30.31F
$$

COZ035-036-038>040-202000-
...NORTHERN COLORADO FRONT RANGE...

CITY           SKY/WX    TMP DP  RH WIND       PRES   REMARKS
DENVER INTL AP FAIR      84  35  17 NE12      30.13F
DMNS CITY PARK   N/A     84  33  15 E16       30.12S
AURORA         MOSUNNY   84  36  17 N9        30.15S
FRONT RANGE AP FAIR      84  36  17 NE10G16   30.14F
ERIE MUNI ARPT FAIR      86  33  14 E9        30.16S
BOULDER MUN AP FAIR      86  36  16 E7        30.13S
CENTENNIAL     FAIR      84  31  14 NE9       30.16S
BROOMFIELD     PTSUNNY   86  36  16 E9G17     30.16S
FORT COLLINS   FAIR      84  48  28 E16       30.11S
LONGMONT       FAIR      86  40  19 E8        30.13S
$$

COZ041-046-047-076>085-087-088-202000-
...PIKES PEAK/PALMER DIVIDE AND SOUTHERN FOOTHILLS...

CITY           SKY/WX    TMP DP  RH WIND       PRES   REMARKS
COLO. SPRINGS  PTSUNNY   86  42  21 E16       30.17F
A. F. ACADEMY  FAIR      83  38  20 NE6       30.19F
SCHRIEVER AFB  FAIR      82  39  21 NE10G17   30.18F
CHEYENNE MTN   PTSUNNY   78  46  32 SE8       30.18F
ELLICOTT       NOT AVBL
FALCON         FAIR      81  36  19 E12G17    30.25S
FORT CARSON    FAIR      85  50  29 SE8       30.14F
LIMON          FAIR      85  44  23 NE8       30.12S
MONUMENT HILL  FAIR      77  37  24 E10       30.26F
CANON CITY     SUNNY     90  48  24 E12       30.09F
WALSENBURG     NOT AVBL
TRINIDAD       FAIR      88  40  18 N6        30.11F
$$

COZ042>045-048>051-090-091-202000-
...NORTHEAST COLORADO...

CITY           SKY/WX    TMP DP  RH WIND       PRES   REMARKS
GREELEY ARPT   FAIR      82  49  31 NE12      30.10F
AKRON          FAIR      86  52  30 N12       30.07F
BURLINGTON     FAIR      88  55  32 E5        30.03S
WRAY           NOT AVBL
YUMA           FAIR      82  46  28 NE8       30.03S
STERLING       FAIR      82  63  51 E8        30.03F
HOLYOKE        FAIR      88  63  42 E5        30.01S
FORT MORGAN    FAIR      82  45  27 NE9       30.08F
$$

COZ086-089-092>099-202000-
...SOUTHEAST COLORADO...

CITY           SKY/WX    TMP DP  RH WIND       PRES   REMARKS
PUEBLO         FAIR      91  45  20 E9        30.04F
LA JUNTA       FAIR      89  50  26 CALM      30.01F
LAMAR          FAIR      89  57  33 VRB5      29.97F
SPRINGFIELD      N/A     87  59  38 S13       30.02F
$$




USA.gov is the U.S. government's official web portal to all federal, state and local government web resources and services.